CZ-4C DEB, 44598

Orbit data source: Space-Track

CZ-4C DEB, 44598 is space debris in SSO originally from a launch on Wed, 20 Nov 2013 UTC launched from the Taiyaun Space Center, China (TSC). Debris objects in space refer to the collection of defunct objects orbiting the Earth. Examples of debris include non-operational satellites, rocket bodies, and fragments generated from explosions, collisions, or faulty payload assembly.

Loading next visibility...
Identifier
44598, 2013-065H
Orbit
SSO
Country
Flag of CNCN / PRC
Related business
Manufacturer
Unknown
Mission
Spacecraft
Bus & Motor
Unknown
Mass
Unknown
Launch date (UTC)
2013-11-20 (13 years ago)
Launch vehicle
Unknown
Launch site
Taiyaun Space Center, China (TSC)
Object type
Payload
Rocket body
Debris
Shape & HBR
Unknown shape, 0.1 m
Radar Cross Section
Small (<0.1 m²)

Expand to show TLE details & history
Last TLE update: 6 days ago

TLE from 6 days ago
0 CZ-4C DEB
1 44598U 13065H   26167.06704479 -.00000022  00000-0  43460-4 0  9990
2 44598 100.4121 110.8637 0139798 207.8015 151.5591 13.43668214533676
Epoch: 2026-06-16T01:36Z
TLE epoch observation values (Epoch: 2026-06-16T01:36:32.669Z)
Latitude
-0.00007°
Longitude
-177.61681°
Altitude
1,190.611 km
Speed
7.214 km/s
True Right ascension
07h 23m 27s
True Declination
0° 00' 00"
Sunlit
Object was in daylight at epoch
Visualization orbit readout
Latitude
Unknown
Longitude
Unknown
Altitude
Unknown
Speed
Unknown
Apparent Right ascension
Unknown
Apparent Declination
Unknown
Sunlit
N/A
Visualization observer readout
Local Sidereal Time
21:23:49
Azimuth
Unknown
Elevation
Unknown
Doppler factor
Unknown
Orbital elements
Apogee altitude
1,197.438 km
Perigee altitude
988.548 km
Semi-major axis
7,471.13 km
Eccentricity
0.01398
Inclination
100.4121°
RAAN
110.8637°
Arg. of periapsis
207.8015°
True anomaly
152.31047°
Mean anomaly
151.5591°
Eccentric anomaly
151.93593°
Mean motion
3.36096 °/min
Orbital period
107.11 mins
BSTAR
0.00004346
Loading maneuver chart data...
Computing Atmospheric mass density...
Loading historical data...
Loading historical data...
Loading historical data...
Loading historical data...
Loading historical data...
Loading historical data...
Loading historical data...

Documentation

Showing up to 5 results
|